Hourly Data Report for October 18, 2014

All times are specified in Local Standard Time (LST). Add 1 hour to adjust for Daylight Saving Time where and when it is observed.

BAKER LAKE A
NUNAVUT

64°17'56.000" N
96°04'40.000" W
18.60 m
2300503
71926
YBK

Download Data

Hourly Data (October 2014)
Hourly Data Report for October 18, 2014
Temp Definition
°C
Dew Point Temp Definition
°C
Rel Hum Definition
%
Wind Dir Definition
10's deg

Wind Spd Definition
km/h
Visibility Definition
km
Stn Press Definition
kPa
Hmdx Definition


Wind Chill Definition


Weather Definition


TIME
00:00 Legend Double Dagger -7.9 -8.7 94 16 22 24.1 102.15   -16 Mainly Clear
01:00 Legend Double Dagger -8.3 -9.1 94 15 20 24.1 102.09   -16 LegendNANA
02:00 Legend Double Dagger -8.2 -9.1 93 15 24 24.1 102.02   -16 LegendNANA
03:00 Legend Double Dagger -7.9 -9.1 91 14 31 24.1 101.92   -17 Mostly Cloudy
04:00 Legend Double Dagger -7.7 -9.1 90 15 29 24.1 101.84   -16 LegendNANA
05:00 Legend Double Dagger -7.9 -9.3 90 15 23 24.1 101.76   -16 LegendNANA
06:00 Legend Double Dagger -7.8 -9.2 90 15 31 24.1 101.65   -17 Mainly Clear
07:00 Legend Double Dagger -7.6 -9.0 90 15 35 32.2 101.53   -17 LegendNANA
08:00 Legend Double Dagger -6.8 -8.2 90 15 39 24.1 101.37   -16 LegendNANA
09:00 Legend Double Dagger -6.3 -7.8 89 14 42 24.1 101.26   -16 Mostly Cloudy
10:00 Legend Double Dagger -5.8 -7.5 88 15 45 24.1 101.18   -16 LegendNANA
11:00 Legend Double Dagger -5.2 -6.7 89 15 43 4.0 101.11   -15 Snow,Blowing Snow
12:00 Legend Double Dagger -4.3 -5.4 92 14 39 3.2 101.00   -13 Snow,Blowing Snow
13:00 Legend Double Dagger -3.7 -4.8 92 15 47 4.0 100.89   -13 Snow
14:00 Legend Double Dagger -3.0 -3.8 94 14 35 3.2 100.82   -11 Snow,Blowing Snow
15:00 Legend Double Dagger -2.5 -3.3 94 15 33 3.2 100.73   -10 Snow,Blowing Snow
16:00 Legend Double Dagger -1.9 -3.2 91 16 29 24.1 100.61   -9 Snow,Blowing Snow
17:00 Legend Double Dagger -1.7 -2.7 93 16 33 4.8 100.55   -9 Snow,Blowing Snow
18:00 Legend Double Dagger -1.7 -2.4 95 0 LegendMM 4.8 100.49     Snow,Blowing Snow
19:00 Legend Double Dagger -1.7 -2.3 96 15 32 4.8 100.41   -9 Snow,Blowing Snow
20:00 Legend Double Dagger -1.7 -2.1 97 15 33 1.2 100.35   -9 Snow,Blowing Snow
21:00 Legend Double Dagger -1.6 -2.0 97 15 31 2.4 100.28   -9 Snow,Blowing Snow
22:00 Legend Double Dagger -1.6 -2.2 96 15 28 8.1 100.23   -8 Snow,Blowing Snow
23:00 Legend Double Dagger -1.6 -2.3 95 15 27 8.1 100.16   -8 Snow,Blowing Snow

Notes on Data Quality.

Legend

  • E = Estimated
  • M = Missing
  • NA = Not Available
  • ‡ = Partner data that is not subject to review by the National Climate Archives
Date modified: